Bloomington, IL

6:46 AM CST on February 26, 2017 (GMT -0600)
Central Ill Regional

Weather History for KBMI - April, 2014

Change the Weather History Date:

Sunday, April 6, 2014

  Actual Average Record
Temperature  
Mean Temperature 43 °F -  
Max Temperature 55 °F 0 °F 77 °F (2001)
Min Temperature 31 °F - 25 °F (2007)
Degree Days  
Heating Degree Days 22    
Moisture  
Dew Point 30 °F    
Average Humidity 62    
Maximum Humidity 79    
Minimum Humidity 39    
Precipitation  
Precipitation 0.00 in - - ()
Sea Level Pressure  
Sea Level Pressure 30.09 in    
Wind  
Wind Speed 7 mph (SE)    
Max Wind Speed 13 mph    
Max Gust Speed -    
Visibility 10 miles    
Events      
Averages and records for this station are not official NWS values.
T = Trace of Precipitation, MM = Missing Value Source: NWS Daily Summary

Daily Weather History Graph

Daily Weather History Graph

Search for Another Location

Airport or City:

Trip Planner

Search our weather history database for the weather conditions in past years. The results will help you decide how hot, cold, wet, or windy it might be!

Date:

Astronomy

Apr. 06, 2014 Rise Set
Actual Time 6:31 AM CDT 7:25 PM CDT
Civil Twilight 6:03 AM CDT 7:53 PM CDT
Nautical Twilight 5:30 AM CDT 8:26 PM CDT
Astronomical Twilight 4:56 AM CDT 9:00 PM CDT
Moon 11:31 AM CDT (4/6) 1:22 AM CDT (4/6)
Length of Visible Light 13h 49m
Length of Day
12h 54m
Waxing Crescent, 44% of the Moon is Illuminated
Apr 6
Waxing Crescent
Apr 7
First Quarter
Apr 15
Full
Apr 22
Last Quarter
Apr 29
New

Hourly Weather History & Observations

Time (CDT) Temp. Windchill Dew Point Humidity Pressure Visibility Wind Dir Wind Speed Gust Speed Precip Events Conditions
12:56 AM 34.9 °F 29.9 °F 28.0 °F 76% 30.19 in 10.0 mi SSE 5.8 mph - N/A   Clear
1:56 AM 34.9 °F 30.8 °F 27.1 °F 73% 30.17 in 10.0 mi SSE 4.6 mph - N/A   Clear
2:56 AM 32.9 °F 28.5 °F 27.1 °F 79% 30.17 in 10.0 mi SSE 4.6 mph - N/A   Clear
3:56 AM 32.0 °F 26.4 °F 26.1 °F 79% 30.17 in 10.0 mi ESE 5.8 mph - N/A   Clear
4:56 AM 34.0 °F 28.8 °F 27.1 °F 76% 30.16 in 10.0 mi SE 5.8 mph - N/A   Clear
5:56 AM 31.1 °F 25.4 °F 25.2 °F 79% 30.18 in 10.0 mi SE 5.8 mph - N/A   Clear
6:56 AM 32.0 °F 25.6 °F 25.2 °F 76% 30.19 in 10.0 mi SSE 6.9 mph - N/A   Clear
7:56 AM 34.9 °F 27.7 °F 29.1 °F 79% 30.18 in 10.0 mi SSE 9.2 mph - N/A   Clear
8:56 AM 39.9 °F 33.4 °F 32.0 °F 73% 30.17 in 10.0 mi SSE 10.4 mph - N/A   Clear
9:56 AM 43.9 °F 37.9 °F 32.0 °F 63% 30.16 in 10.0 mi South 11.5 mph - N/A   Clear
10:56 AM 45.0 °F 38.9 °F 32.0 °F 60% 30.15 in 10.0 mi SSE 12.7 mph - N/A   Clear
11:56 AM 48.9 °F - 32.9 °F 54% 30.13 in 10.0 mi SSE 9.2 mph - N/A   Clear
12:56 PM 52.9 °F - 32.9 °F 47% 30.09 in 10.0 mi East 9.2 mph - N/A   Clear
1:56 PM 52.0 °F - 32.0 °F 47% 30.06 in 10.0 mi SE 9.2 mph - N/A   Clear
2:56 PM 54.0 °F - 30.0 °F 40% 30.03 in 10.0 mi ESE 9.2 mph - N/A   Partly Cloudy
3:56 PM 55.9 °F - 31.1 °F 39% 30.01 in 10.0 mi SE 6.9 mph - N/A   Clear
4:56 PM 54.9 °F - 30.0 °F 39% 30.01 in 10.0 mi SE 8.1 mph - N/A   Clear
5:56 PM 54.9 °F - 30.0 °F 39% 29.99 in 10.0 mi East 5.8 mph - N/A   Clear
6:56 PM 50.9 °F - 32.9 °F 50% 29.98 in 10.0 mi East 5.8 mph - N/A   Clear
7:56 PM 46.9 °F - 32.9 °F 58% 29.99 in 10.0 mi SE 6.9 mph - N/A   Clear
8:56 PM 43.9 °F 40.5 °F 34.0 °F 68% 30.00 in 10.0 mi East 5.8 mph - N/A   Clear
9:56 PM 41.9 °F 38.2 °F 32.0 °F 68% 29.98 in 10.0 mi East 5.8 mph - N/A   Clear
10:56 PM 41.0 °F 37.1 °F 32.0 °F 70% 29.96 in 10.0 mi East 5.8 mph - N/A   Clear